User: anonymous
Location: Plymouth
(43.7570°N, 71.6890°W)
Time: 19:00:49
(UTC-04:00)
Language:

Meteor 1-28 Rocket - Orbit

View from above orbital plane
View from above orbital plane
View from above satellite
View from above satellite

Ground track
Ground track

The orbit data is extracted from the following two-line orbital elements,

1 10114U 77057B   14204.76120568  .00000320  00000-0  21318-4 0  3009
2 10114 097.2661 063.3661 0016348 059.6111 300.6735 15.13471987 23094
Epoch (UTC): 23 July 2014 18:16:08
Eccentricity: 0.0016348
inclination: 97.2661°
perigee height: 514 km
apogee height: 537 km
right ascension of ascending node: 63.3661°
argument of perigee: 59.6111°
revolutions per day: 15.13471987
mean anomaly at epoch: 300.6735°
orbit number at epoch: 2309

The dashed part of the orbit path shows where the satellite is in the earth's shadow,  

DLR